Date String (YYYY-MM-DD hh:mm:ss) UTC,Instrument flags,Ambient pressure (hPa),Sample flow (lpm),Bypass flow (lpm),Sample temperature (°C),Ambient temperature (°C),ASC tube jacket temperature (°C),LED temperature (°C),Box temperature (°C),Sample RH (%),Span deviation,Mass concentration (μg/m³),Mass concentration (μg/m³),Mass concentration (μg/m³)
DateTimeUTC,F1_M11,P_M11,Q1_M11,Q2_M11,T1_M11,T2_M11,T3_M11,T4_M11,T5_M11,U1_M11,ZSPAN_M11,X0_M11,X2_M11,X1_M11
2022-12-28 00:00:00,,0809.6,5.00,0.00,25.1,23.6,00.0,34.0,26.8,14.0,0000.0,0001.34,0000.31,0000.15
2022-12-28 00:01:00,,0809.6,5.01,0.00,25.1,23.6,00.0,34.0,26.9,14.0,0000.0,0001.35,0000.32,0000.14
2022-12-28 00:02:00,,0809.6,5.00,0.00,25.1,23.6,00.0,34.0,26.9,14.2,0000.0,0001.37,0000.34,0000.14
2022-12-28 00:03:00,,0809.7,5.00,0.00,25.1,23.6,00.0,34.0,26.8,13.3,0000.0,0001.40,0000.34,0000.14
2022-12-28 00:04:00,,0809.8,5.00,0.00,25.1,23.6,00.0,34.0,26.9,13.9,0000.0,0001.33,0000.35,0000.14
2022-12-28 00:05:00,,0809.9,5.01,0.00,25.1,23.6,00.0,34.0,26.9,14.1,0000.0,0000.77,0000.34,0000.14
2022-12-28 00:06:00,,0809.9,5.00,0.00,25.1,23.6,00.0,34.0,26.8,14.3,0000.0,0000.74,0000.31,0000.13
2022-12-28 00:07:00,,0809.9,5.01,0.00,25.1,23.6,00.0,34.0,26.8,14.8,0000.0,0000.68,0000.28,0000.13
2022-12-28 00:08:00,,0809.9,5.00,0.00,25.1,23.6,00.0,34.0,26.8,15.2,0000.0,0000.76,0000.27,0000.13
2022-12-28 00:09:00,,0809.9,4.99,0.00,25.1,23.6,00.0,34.0,26.8,15.5,0000.0,0000.76,0000.26,0000.13
2022-12-28 00:10:00,,0809.9,5.00,0.00,25.1,23.6,00.0,34.0,26.9,15.6,0000.0,0000.69,0000.24,0000.12
2022-12-28 00:11:00,,0809.9,4.99,0.00,25.1,23.6,00.0,34.0,26.8,14.1,0000.0,0000.77,0000.26,0000.12
2022-12-28 00:12:00,,0810.0,5.00,0.00,25.1,23.6,00.0,34.0,26.8,12.0,0000.0,0000.74,0000.25,0000.12
2022-12-28 00:13:00,,0809.9,5.00,0.00,25.1,23.6,00.0,33.9,26.8,14.2,0000.0,0000.73,0000.23,0000.12
2022-12-28 00:14:00,,0809.9,5.01,0.00,25.1,23.6,00.0,33.9,26.8,15.8,0000.0,0001.36,0000.23,0000.11
2022-12-28 00:15:00,,0809.9,4.99,0.00,25.1,23.6,00.0,33.9,26.8,16.2,0000.0,0001.25,0000.22,0000.11
2022-12-28 00:16:00,,0809.9,5.00,0.00,25.1,23.6,00.0,33.9,26.7,16.3,0000.0,0001.25,0000.22,0000.11
2022-12-28 00:17:00,,0810.0,5.00,0.00,25.0,23.7,00.0,33.9,26.7,16.2,0000.0,0001.33,0000.24,0000.11
2022-12-28 00:18:00,,0809.8,5.00,0.00,25.1,23.7,00.0,33.9,26.8,16.4,0000.0,0001.41,0000.26,0000.11
2022-12-28 00:19:00,,0809.7,4.99,0.00,25.1,23.7,00.0,33.9,26.8,16.3,0000.0,0001.29,0000.25,0000.11
2022-12-28 00:20:00,,0809.7,5.00,0.00,25.1,23.8,00.0,34.0,26.9,16.3,0000.0,0001.24,0000.24,0000.11
2022-12-28 00:21:00,,0809.7,5.01,0.00,25.1,23.8,00.0,34.0,27.0,16.5,0000.0,0001.25,0000.25,0000.12
2022-12-28 00:22:00,,0809.7,5.00,0.00,25.1,23.8,00.0,34.0,27.0,16.6,0000.0,0001.23,0000.25,0000.12
2022-12-28 00:23:00,,0809.6,5.00,0.00,25.1,23.8,00.0,34.0,27.0,15.8,0000.0,0001.32,0000.27,0000.12
2022-12-28 00:24:00,,0809.5,5.00,0.00,25.1,23.9,00.0,34.0,27.0,14.4,0000.0,0001.28,0000.28,0000.12
2022-12-28 00:25:00,,0809.5,5.01,0.00,25.1,23.9,00.0,34.0,27.0,13.7,0000.0,0000.65,0000.28,0000.14
2022-12-28 00:26:00,,0809.7,5.00,0.00,25.2,23.9,00.0,34.0,27.1,12.3,0000.0,0000.70,0000.32,0000.17
2022-12-28 00:27:00,,0809.9,5.00,0.00,25.2,24.0,00.0,34.0,27.0,11.6,0000.0,0000.76,0000.36,0000.20
2022-12-28 00:28:00,,0809.9,4.99,0.00,25.2,24.0,00.0,34.0,27.0,12.9,0000.0,0001.84,0000.38,0000.23
2022-12-28 00:29:00,,0809.9,5.00,0.00,25.2,24.0,00.0,34.0,27.1,13.4,0000.0,0002.09,0000.40,0000.24
2022-12-28 00:30:00,,0809.9,5.00,0.00,25.2,24.0,00.0,34.0,27.2,12.8,0000.0,0002.52,0000.46,0000.26
2022-12-28 00:31:00,,0809.9,5.00,0.00,25.2,24.0,00.0,34.1,27.2,11.9,0000.0,0002.94,0000.52,0000.29
2022-12-28 00:32:00,,0809.8,5.01,0.00,25.3,24.1,00.0,34.1,27.2,11.5,0000.0,0003.20,0000.58,0000.32
2022-12-28 00:33:00,,0809.7,5.00,0.00,25.3,24.1,00.0,34.1,27.2,11.8,0000.0,0003.30,0000.62,0000.37
2022-12-28 00:34:00,,0809.7,5.00,0.00,25.3,24.1,00.0,34.1,27.2,11.7,0000.0,0003.28,0000.65,0000.39
2022-12-28 00:35:00,,0809.7,5.00,0.00,25.3,24.1,00.0,34.1,27.2,11.1,0000.0,0003.42,0000.71,0000.44
2022-12-28 00:36:00,,0809.7,5.00,0.00,25.3,24.1,00.0,34.1,27.2,11.0,0000.0,0003.46,0000.74,0000.46
2022-12-28 00:37:00,,0809.8,5.00,0.00,25.3,24.2,00.0,34.1,27.3,10.6,0000.0,0003.56,0000.81,0000.49
2022-12-28 00:38:00,,0810.0,5.01,0.00,25.3,24.2,00.0,34.1,27.3,10.7,0000.0,0004.71,0000.83,0000.51
2022-12-28 00:39:00,,0809.8,5.00,0.00,25.4,24.2,00.0,34.1,27.3,10.7,0000.0,0004.11,0000.91,0000.55
2022-12-28 00:40:00,,0809.7,5.00,0.00,25.4,24.2,00.0,34.2,27.3,10.6,0000.0,0004.22,0000.95,0000.61
2022-12-28 00:41:00,,0809.7,5.00,0.00,25.4,24.2,00.0,34.2,27.3,10.3,0000.0,0003.97,0000.97,0000.66
2022-12-28 00:42:00,,0809.7,5.00,0.00,25.4,24.2,00.0,34.2,27.3,10.3,0000.0,0003.72,0001.00,0000.71
2022-12-28 00:43:00,,0809.7,5.00,0.00,25.4,24.2,00.0,34.2,27.3,10.1,0000.0,0004.35,0001.06,0000.77
2022-12-28 00:44:00,,0809.7,5.00,0.00,25.4,24.2,00.0,34.2,27.3,10.2,0000.0,0004.85,0001.12,0000.82
2022-12-28 00:45:00,,0809.7,4.99,0.00,25.4,24.2,00.0,34.2,27.3,10.0,0000.0,0005.15,0001.20,0000.90
2022-12-28 00:46:00,,0809.7,4.99,0.00,25.4,24.2,00.0,34.2,27.3,10.2,0000.0,0005.14,0001.24,0000.96
2022-12-28 00:47:00,,0809.7,5.00,0.00,25.4,24.2,00.0,34.2,27.3,10.1,0000.0,0005.26,0001.32,0001.02
2022-12-28 00:48:00,,0809.7,5.01,0.00,25.4,24.3,00.0,34.2,27.3,10.1,0000.0,0005.93,0001.36,0001.08
2022-12-28 00:49:00,,0809.7,5.00,0.00,25.4,24.3,00.0,34.2,27.3,11.0,0000.0,0006.47,0001.39,0001.11
2022-12-28 00:50:00,,0809.7,5.01,0.00,25.5,24.3,00.0,34.3,27.3,11.0,0000.0,0005.90,0001.35,0001.11
2022-12-28 00:51:00,,0809.8,5.00,0.00,25.5,24.3,00.0,34.3,27.3,10.9,0000.0,0005.53,0001.36,0001.11
2022-12-28 00:52:00,,0809.8,5.00,0.00,25.5,24.3,00.0,34.3,27.3,11.0,0000.0,0005.53,0001.36,0001.11
2022-12-28 00:53:00,,0809.7,5.00,0.00,25.5,24.3,00.0,34.3,27.3,11.0,0000.0,0005.52,0001.39,0001.11
2022-12-28 00:54:00,,0809.5,4.99,0.00,25.5,24.3,00.0,34.3,27.4,13.2,0000.0,0005.05,0001.33,0001.07
2022-12-28 00:55:00,,0809.4,5.00,0.00,25.5,24.3,00.0,34.3,27.4,13.3,0000.0,0004.20,0001.20,0000.98
2022-12-28 00:56:00,,0809.4,5.01,0.00,25.5,24.3,00.0,34.3,27.3,12.9,0000.0,0003.75,0001.11,0000.90
2022-12-28 00:57:00,,0809.4,5.01,0.00,25.5,24.3,00.0,34.3,27.3,14.2,0000.0,0003.63,0001.01,0000.81
2022-12-28 00:58:00,,0809.3,5.00,0.00,25.5,24.2,00.0,34.3,27.3,15.0,0000.0,0003.51,0000.93,0000.72
2022-12-28 00:59:00,,0809.3,5.00,0.00,25.5,24.2,00.0,34.3,27.3,15.9,0000.0,0003.33,0000.82,0000.62
